Location: Izdebno
(52.6670°N, 16.2170°E)
Time: 09:44:12
(UTC+01:00)

Transit 2A - Pass Details

Date: 31 January 2023
Orbit: 591 x 964 km, 66.7° (Epoch: 21 March)

Event Time Altitude Azimuth Distance (km) Brightness Sun altitude
Rises 17:25:07 0° 190° (S) 2,987 9.5 -7.3°
Reaches altitude 10° 17:27:27 10° 182° (S) 2,129 8.6 -7.7°
Maximum altitude 17:31:53 37° 116° (ESE) 1,133 6.6 -8.3°
Drops below altitude 10° 17:36:48 10° 50° (NE) 2,367 8.0 -9.0°
Enters shadow 17:37:09 - 49° (NE) 2,493 8.1 -9.1°
Sets 17:39:30 0° 43° (NE) 3,367 - -9.4°
